Location: Alexandria
(38.8050°N, 77.0470°W)
Time: 19:38:12
(UTC-05:00)

Tiangong 2 - Visible Passes

Search period start: 16 December 2017 00:00
Search period end: 26 December 2017 00:00
Orbit: 386 x 390 km, 42.8° (Epoch: 16 December)

Date Brightness Start Highest point End Pass type
(mag) Time Alt. Az. Time Alt. Az. Time Alt. Az.
19 Dec 3.6 18:19:20 10° SSE 18:20:22 12° SSE 18:20:22 12° SSE visible
20 Dec 3.3 18:55:45 10° SW 18:57:10 22° SSW 18:57:10 22° SSW visible
21 Dec 2.7 17:57:49 10° SSW 18:00:24 23° SSE 18:01:36 19° ESE visible
21 Dec 4.8 19:33:51 10° WSW 19:33:54 10° WSW 19:33:54 10° WSW visible
22 Dec 1.3 18:35:22 10° WSW 18:38:16 67° SSW 18:38:16 67° SSW visible
23 Dec 1.8 17:37:05 10° SW 17:40:07 43° SSE 17:42:35 14° E visible
23 Dec 3.9 19:13:49 10° W 19:14:52 19° W 19:14:52 19° W visible
24 Dec 1.1 18:15:12 10° WSW 18:18:22 68° NNW 18:19:09 45° NE visible
25 Dec 1.1 17:16:40 10° WSW 17:19:50 78° SSE 17:23:02 10° ENE visible
25 Dec 2.9 18:53:48 10° WNW 18:55:40 28° NW 18:55:40 28° NW visible
